Weather History for KIKV - January, 2013

Change the Weather History Date:

Friday, January 11, 2013

  Actual Average (KDSM) Record (KDSM)
Temperature  
Mean Temperature 42 °F 22 °F  
Max Temperature 53 °F 31 °F 55 °F (1992)
Min Temperature 32 °F 14 °F -21 °F (1912)
Degree Days  
Heating Degree Days 22 43  
Month to date heating degree days 466  
Since 1 July heating degree days 2933  
Cooling Degree Days 0 0  
Month to date cooling degree days 0  
Year to date cooling degree days 0  
Moisture  
Dew Point 37 °F    
Average Humidity 84    
Maximum Humidity 93    
Minimum Humidity 67    
Precipitation  
Precipitation 0.01 in 0.02 in 0.90 in (1960)
Month to date precipitation 0.35  
Year to date precipitation 0.35  
Snow  
Snow 0.00 in 0.30 in 6.30 in (1905)
Month to date snowfall 2.8  
Since 1 July snowfall 14.7  
Snow Depth -    
Sea Level Pressure  
Sea Level Pressure 29.57 in    
Wind  
Wind Speed 6 mph (South)    
Max Wind Speed 23 mph    
Max Gust Speed 34 mph    
Visibility 5 miles    
Events Fog , Rain    
T = Trace of Precipitation, MM = Missing Value Source: NWS Daily Summary

Daily Weather History Graph

Daily Weather History Graph

Search for Another Location

Airport or City:

Trip Planner

Search our weather history database for the weather conditions in past years. The results will help you decide how hot, cold, wet, or windy it might be!

Date:

Astronomy

Jan. 11, 2013 Rise Set
Actual Time 7:40 AM CST 5:04 PM CST
Civil Twilight 7:09 AM CST 5:35 PM CST
Nautical Twilight 6:34 AM CST 6:10 PM CST
Astronomical Twilight 6:01 AM CST 6:43 PM CST
Moon 7:13 AM CST (1/11) 5:24 PM CST (1/11)
Length of Visible Light 10h 26m
Length of Day
9h 24m
Waning Crescent, 0% of the Moon is Illuminated
Jan 11
Waning Crescent
Jan 11
New
Jan 18
First Quarter
Jan 26
Full
Feb 3
Last Quarter

Hourly Weather History & Observations

Time (CST) Temp. Windchill Dew Point Humidity Pressure Visibility Wind Dir Wind Speed Gust Speed Precip Events Conditions
12:15 AM 33.8 °F - 30.2 °F 87% 29.72 in 1.2 mi Calm Calm - N/A   Light Drizzle
12:35 AM 32.0 °F - 30.2 °F 93% 29.72 in 0.5 mi Calm Calm - N/A Rain Light Rain
12:55 AM 33.8 °F - 30.2 °F 87% 29.72 in 0.5 mi Calm Calm - N/A Fog Fog
1:15 AM 33.8 °F - 30.2 °F 87% 29.72 in 0.8 mi Calm Calm - N/A   Overcast
1:35 AM 33.8 °F - 30.2 °F 87% 29.72 in 0.8 mi Calm Calm - N/A   Overcast
1:55 AM 33.8 °F - 30.2 °F 87% 29.72 in 1.0 mi Calm Calm - N/A   Overcast
2:15 AM 33.8 °F - 30.2 °F 87% 29.72 in 0.8 mi Calm Calm - N/A   Overcast
2:35 AM 33.8 °F - 30.2 °F 87% 29.71 in 1.0 mi Calm Calm - N/A   Overcast
2:55 AM 33.8 °F - 30.2 °F 87% 29.70 in 0.5 mi Calm Calm - N/A Fog Fog
3:15 AM 33.8 °F - 30.2 °F 87% 29.70 in 1.0 mi Calm Calm - N/A   Overcast
3:35 AM 33.8 °F - 30.2 °F 87% 29.68 in 0.5 mi Calm Calm - N/A Fog Fog
3:55 AM 33.8 °F 27.7 °F 30.2 °F 87% 29.69 in 0.5 mi South 6.9 mph - N/A Fog Fog
4:15 AM 33.8 °F 27.7 °F 30.2 °F 87% 29.66 in 0.5 mi ESE 6.9 mph - N/A Fog Fog
4:35 AM 35.6 °F 29.9 °F 32.0 °F 87% 29.65 in 0.2 mi SSE 6.9 mph - N/A Fog Fog
4:55 AM 35.6 °F 31.7 °F 33.8 °F 93% 29.64 in 0.5 mi SE 4.6 mph - N/A Fog Fog
5:15 AM 35.6 °F 29.2 °F 33.8 °F 93% 29.63 in 0.2 mi SSE 8.1 mph - N/A Fog Fog
5:35 AM 33.8 °F 27.0 °F 32.0 °F 93% 29.64 in 0.2 mi SSE 8.1 mph - N/A Fog Fog
5:55 AM 35.6 °F 29.9 °F 32.0 °F 87% 29.64 in 0.2 mi South 6.9 mph - N/A Fog Fog
6:15 AM 35.6 °F 30.7 °F 32.0 °F 87% 29.65 in 0.2 mi South 5.8 mph - N/A Fog Fog
6:35 AM 35.6 °F 29.9 °F 32.0 °F 87% 29.65 in 0.2 mi South 6.9 mph - N/A Fog Fog
6:55 AM 35.6 °F 29.2 °F 32.0 °F 87% 29.65 in 0.5 mi South 8.1 mph - N/A Fog Fog
7:15 AM 35.6 °F 32.8 °F 32.0 °F 87% 29.64 in 0.2 mi SSE 3.5 mph - N/A Fog Fog
7:35 AM 35.6 °F 32.8 °F 33.8 °F 93% 29.64 in 0.2 mi SSE 3.5 mph - N/A Fog Fog
7:55 AM 35.6 °F 31.7 °F 32.0 °F 87% 29.64 in 0.2 mi SSE 4.6 mph - N/A Fog Fog
8:15 AM 35.6 °F 31.7 °F 33.8 °F 93% 29.64 in 0.2 mi SSE 4.6 mph - N/A Fog Fog
8:35 AM 37.4 °F 32.8 °F 33.8 °F 87% 29.64 in 0.2 mi SSE 5.8 mph - N/A Fog Fog
8:55 AM 37.4 °F 33.8 °F 35.6 °F 93% 29.62 in 0.2 mi SSE 4.6 mph - N/A Fog Fog
9:15 AM 39.2 °F 33.0 °F 35.6 °F 87% 29.61 in 0.2 mi South 9.2 mph - N/A Fog Fog
9:35 AM 39.2 °F 32.5 °F 37.4 °F 93% 29.61 in 0.2 mi South 10.4 mph - N/A Fog Fog
9:55 AM 39.2 °F 33.0 °F 37.4 °F 93% 29.61 in 0.2 mi SSE 9.2 mph - N/A Fog Fog
10:15 AM 41.0 °F 35.8 °F 37.4 °F 87% 29.60 in 0.2 mi SSE 8.1 mph - N/A Fog Fog
10:35 AM 42.8 °F 38.6 °F 39.2 °F 87% 29.60 in 0.2 mi South 6.9 mph - 0.01 in Fog Fog
10:55 AM 42.8 °F 36.6 °F 39.2 °F 87% 29.58 in 2.5 mi South 11.5 mph - 0.01 in   Overcast
11:15 AM 42.8 °F 36.2 °F 39.2 °F 87% 29.59 in 4.0 mi South 12.7 mph - N/A   Overcast
11:35 AM 42.8 °F 36.6 °F 39.2 °F 87% 29.57 in 4.0 mi South 11.5 mph 17.3 mph N/A   Overcast
11:55 AM 42.8 °F 37.5 °F 39.2 °F 87% 29.55 in 5.0 mi SSE 9.2 mph - N/A   Overcast
12:15 PM 42.8 °F 37.0 °F 41.0 °F 93% 29.52 in 5.0 mi SSE 10.4 mph - N/A   Overcast
12:35 PM 44.6 °F 38.8 °F 41.0 °F 87% 29.49 in 7.0 mi SSE 11.5 mph - N/A   Overcast
12:55 PM 44.6 °F 39.2 °F 41.0 °F 87% 29.50 in 7.0 mi South 10.4 mph - N/A   Overcast
1:15 PM 44.6 °F 39.2 °F 41.0 °F 87% 29.49 in 10.0 mi South 10.4 mph - N/A   Overcast
1:35 PM 44.6 °F 39.2 °F 42.8 °F 93% 29.50 in 10.0 mi South 10.4 mph - N/A   Overcast
2:15 PM 44.6 °F 39.7 °F 41.0 °F 87% 29.48 in 10.0 mi South 9.2 mph - N/A   Scattered Clouds
2:35 PM 44.6 °F 39.2 °F 42.8 °F 93% 29.48 in 10.0 mi South 10.4 mph - N/A   Clear
2:55 PM 44.6 °F 39.7 °F 41.0 °F 87% 29.48 in 10.0 mi South 9.2 mph - N/A   Clear
3:15 PM 46.4 °F 41.9 °F 42.8 °F 87% 29.48 in 10.0 mi South 9.2 mph - N/A   Clear
3:35 PM 48.2 °F - 42.8 °F 82% 29.47 in 10.0 mi SSE 10.4 mph - N/A   Clear
3:55 PM 46.4 °F 42.4 °F 41.0 °F 81% 29.48 in 10.0 mi South 8.1 mph - N/A   Clear
4:15 PM 46.4 °F 43.5 °F 41.0 °F 81% 29.48 in 10.0 mi SSE 5.8 mph - N/A   Clear
4:35 PM 46.4 °F 42.4 °F 41.0 °F 81% 29.48 in 10.0 mi South 8.1 mph - N/A   Clear
4:55 PM 46.4 °F 41.1 °F 41.0 °F 81% 29.47 in 10.0 mi South 11.5 mph - N/A   Clear
5:15 PM 46.4 °F 42.9 °F 41.0 °F 81% 29.47 in 10.0 mi South 6.9 mph - N/A   Clear
5:35 PM 46.4 °F 41.5 °F 39.2 °F 76% 29.48 in 10.0 mi South 10.4 mph - N/A   Clear
5:55 PM 46.4 °F 40.7 °F 39.2 °F 76% 29.47 in 10.0 mi South 12.7 mph - N/A   Clear
6:15 PM 46.4 °F 40.4 °F 41.0 °F 81% 29.46 in 10.0 mi South 13.8 mph - N/A   Clear
6:35 PM 46.4 °F 40.1 °F 41.0 °F 81% 29.46 in 10.0 mi South 15.0 mph - N/A   Clear
6:55 PM 48.2 °F - 42.8 °F 82% 29.46 in 10.0 mi South 17.3 mph 23.0 mph N/A   Clear
7:15 PM 50.0 °F - 42.8 °F 76% 29.47 in 10.0 mi South 18.4 mph 26.5 mph N/A   Clear
7:35 PM 50.0 °F - 42.8 °F 76% 29.47 in 10.0 mi South 19.6 mph 27.6 mph N/A   Clear
7:55 PM 51.8 °F - 42.8 °F 71% 29.47 in 10.0 mi South 19.6 mph 28.8 mph N/A   Clear
8:15 PM 51.8 °F - 42.8 °F 71% 29.47 in 10.0 mi South 16.1 mph 25.3 mph N/A   Clear
8:35 PM 51.8 °F - 42.8 °F 71% 29.48 in 10.0 mi South 16.1 mph 25.3 mph N/A   Clear
8:55 PM 51.8 °F - 42.8 °F 71% 29.47 in 10.0 mi South 17.3 mph 27.6 mph N/A   Clear
9:15 PM 51.8 °F - 42.8 °F 71% 29.48 in 10.0 mi South 20.7 mph 25.3 mph N/A   Clear
9:35 PM 51.8 °F - 42.8 °F 71% 29.48 in 10.0 mi South 20.7 mph 34.5 mph N/A   Clear
9:55 PM 51.8 °F - 42.8 °F 71% 29.48 in 10.0 mi SSW 23.0 mph 31.1 mph N/A   Clear
10:15 PM 51.8 °F - 42.8 °F 71% 29.49 in 10.0 mi SSW 21.9 mph 33.4 mph N/A   Clear
10:35 PM 53.6 °F - 42.8 °F 67% 29.50 in 10.0 mi SSW 19.6 mph 28.8 mph N/A   Clear
10:55 PM 53.6 °F - 42.8 °F 67% 29.51 in 10.0 mi SSW 19.6 mph 29.9 mph N/A   Clear
11:35 PM 51.8 °F - 42.8 °F 71% 29.52 in 10.0 mi SSW 20.7 mph 26.5 mph N/A   Clear